Wind_Speed
12 10 9 7 8 13 20 22 15 6 11 14 10 14 11 13 4 2 6 10 8 12 10 12 12 12 15 17 18 21 24 25 26 27 28 28 26 25 22 20 19 18 17 16 15 14 14 14 13
12 12 9 6 14 21 20 17 11 12 10 7 11 13 14 15 11 8 5 18 13 16 14 14 13 14 15 19 22 24 26 27 27 27 26 24 22 20 18 17 15 15 14 13 13 12 12 12 12
13 10 7 13 20 26 19 4 7 14 9 7 6 7 9 8 16 22 15 17 13 19 18 17 17 16 18 21 24 27 28 28 27 25 22 20 18 16 15 13 12 12 11 12 11 11 12 12 11
11 8 10 15 21 19 31 12 4 10 8 10 9 6 7 14 16 30 25 20 15 22 21 20 20 19 20 24 28 29 29 28 25 22 20 17 15 13 12 10 9 8 9 10 11 11 11 11 11
13 11 18 22 20 20 18 28 12 10 12 10 11 11 9 8 18 30 28 18 18 25 24 23 22 22 22 27 29 31 30 26 23 20 17 15 12 10 8 7 6 6 7 9 10 11 12 13 13
15 15 23 26 25 21 19 17 29 17 15 13 14 14 10 9 14 28 27 20 21 25 28 26 25 25 25 28 30 31 30 28 23 20 16 14 11 9 7 4 3 4 5 7 9 10 12 13 15
20 21 28 28 26 22 21 14 16 28 14 13 16 13 12 11 17 18 23 23 25 25 32 30 28 28 28 29 30 31 30 28 25 21 18 14 11 8 6 4 1 3 5 7 8 10 11 12 14
24 25 32 32 29 29 23 20 17 17 26 16 11 10 13 11 16 9 16 23 25 25 36 33 32 31 30 31 31 31 30 28 26 23 19 16 12 10 7 3 1 3 5 7 9 11 13 14 15
24 32 38 33 31 29 23 22 18 16 26 19 14 16 13 9 11 10 8 18 22 21 37 36 35 34 33 32 33 32 31 30 28 24 21 18 15 11 8 6 4 5 7 10 12 14 14 15 16
29 34 36 30 28 28 29 26 23 20 20 31 22 14 16 11 10 8 9 4 17 21 31 39 39 37 36 36 34 33 32 31 29 27 23 20 16 14 10 8 6 6 8 11 14 16 15 15 17
30 38 30 29 28 30 31 32 26 24 24 24 36 20 15 15 10 10 7 10 5 19 24 37 42 42 40 38 37 36 35 33 30 28 25 22 18 15 13 11 9 8 11 12 13 16 16 15 18
30 33 31 30 32 31 31 30 32 31 28 24 27 44 26 18 16 13 10 12 9 11 26 28 43 45 44 42 40 39 36 34 31 29 26 23 19 17 15 14 11 10 13 13 17 19 18 17 17
28 26 30 28 30 31 30 32 33 33 32 25 29 34 45 33 20 16 14 14 14 17 20 26 43 48 47 46 44 42 39 36 33 31 28 25 22 20 18 17 14 15 14 18 17 17 19 17 18
20 22 27 29 30 27 30 35 32 37 32 32 30 31 31 45 28 17 14 12 18 15 25 24 42 48 45 46 46 44 41 39 37 34 31 28 25 23 21 19 17 17 18 18 20 19 19 17 18
19 24 24 25 27 29 26 34 38 34 32 36 34 27 29 33 42 21 16 18 20 19 19 21 20 34 42 43 44 42 40 37 39 38 35 30 27 25 23 24 21 20 20 20 20 17 16 14 22
17 19 25 24 25 26 24 38 31 29 31 36 34 29 26 30 48 35 20 26 22 20 20 24 45 27 28 43 43 44 43 43 42 41 38 35 31 29 30 28 26 23 23 22 24 25 24 24 30
18 23 21 21 16 19 22 32 26 27 23 26 28 29 30 31 37 38 31 37 35 29 25 23 18 65 31 17 30 43 46 48 45 46 44 38 34 33 30 30 27 26 28 25 28 32 32 38 33
15 18 16 17 13 16 19 26 22 19 22 24 24 23 24 27 31 35 26 35 38 33 29 23 21 17 63 33 26 25 41 47 48 47 44 37 37 35 37 36 31 30 31 30 32 26 26 33 29
19 18 18 18 15 19 22 25 24 25 29 26 25 23 24 26 25 24 31 34 32 36 41 38 30 20 24 62 42 41 41 32 37 44 49 43 44 36 33 35 38 36 36 31 30 28 23 26 23
17 19 22 21 20 21 23 27 26 28 31 31 29 27 26 25 28 28 25 34 37 38 44 37 38 38 42 36 37 47 56 44 41 43 58 41 41 43 44 48 48 43 41 35 34 28 28 28 27
17 19 20 21 19 22 25 34 29 28 32 30 31 27 27 28 26 30 34 40 46 43 36 39 37 35 40 48 40 39 56 65 54 54 45 61 44 38 42 47 46 42 45 41 31 32 28 25 28
20 17 19 19 20 23 19 24 24 21 17 18 20 21 23 25 28 25 25 39 42 48 46 37 38 38 37 40 37 41 43 41 46 64 50 58 61 42 37 35 39 43 43 44 34 30 25 20 28
22 18 17 19 23 25 28 24 29 23 26 21 21 21 16 15 15 18 20 39 40 36 34 36 36 39 45 41 40 48 47 50 48 55 70 51 67 58 53 47 46 46 37 39 37 27 25 23 27
19 18 19 22 25 23 30 28 32 24 19 16 15 14 16 16 15 14 12 22 26 30 30 30 31 34 38 44 49 48 49 50 46 41 43 50 51 49 59 42 47 40 32 35 32 32 30 36 32
19 20 20 21 21 18 25 10 18 8 5 8 17 15 12 15 15 15 14 12 14 22 26 29 29 27 32 37 43 48 51 50 49 46 45 46 48 43 37 39 38 36 29 33 33 33 35 41 34
23 23 21 18 16 19 10 10 16 17 17 17 14 16 16 13 11 14 14 13 14 14 22 27 29 29 29 32 36 40 46 52 52 50 51 52 49 46 44 43 37 34 32 31 33 39 44 41 37
23 28 28 24 28 26 35 38 40 16 21 17 15 13 13 13 14 16 16 17 16 18 21 26 26 29 32 32 33 37 41 45 50 55 54 55 53 51 48 46 45 39 35 36 38 38 44 46 38
26 28 26 15 13 21 25 31 29 27 21 19 17 14 13 14 15 18 19 21 21 20 20 25 27 30 30 32 34 35 37 41 45 50 57 60 57 54 52 51 52 50 46 44 45 44 46 44 39
26 27 32 30 30 15 17 18 10 10 12 14 14 14 15 16 19 19 19 19 20 21 21 21 26 32 33 34 34 36 36 38 41 46 51 55 60 58 56 52 53 53 48 50 50 46 47 45 39
26 29 26 22 14 26 29 31 16 12 11 14 12 12 16 20 22 21 19 18 18 18 19 21 26 28 31 36 38 40 41 39 40 43 46 48 53 57 60 56 51 50 48 50 48 45 44 37 38
Wind_Direction
269 279 280 257 242 237 242 234 229 239 234 221 218 215 220 254 291 29 336 216 254 224 203 197 188 166 150 135 132 131 128 127 125 122 119 116 111 107 104 99 94 90 85 78 71 65 60 54 49
271 273 283 243 239 246 235 232 214 223 210 224 242 243 255 248 259 236 286 234 258 216 199 197 199 174 161 141 138 135 132 131 129 126 122 118 114 110 105 100 94 87 80 73 64 54 47 41 35
266 269 263 248 243 241 242 266 216 228 228 246 223 225 237 230 237 240 230 236 238 206 193 195 199 189 171 149 143 139 136 134 132 130 127 121 116 112 103 95 86 79 72 65 55 44 35 27 20
260 277 262 243 248 245 242 249 258 232 237 243 229 253 250 241 250 230 229 251 229 200 194 196 198 195 179 157 149 144 141 139 138 136 130 124 118 111 105 95 84 73 62 52 46 36 27 21 12
251 247 250 250 250 247 244 233 241 241 242 245 239 229 245 260 264 232 233 237 224 198 195 199 198 195 188 167 155 150 147 146 146 142 138 132 127 120 112 101 84 65 52 43 30 22 17 12 4
244 247 250 249 247 246 241 243 237 251 250 246 245 236 244 254 298 234 231 230 216 202 197 198 199 196 190 176 163 157 154 154 154 152 150 147 144 138 127 121 94 53 33 28 12 5 4 1 355
238 239 247 251 252 246 240 236 237 230 237 241 243 223 227 267 273 276 244 225 215 209 198 197 198 197 190 184 173 165 162 162 161 161 160 159 162 162 158 154 95 20 13 9 0 349 349 346 346
237 243 250 247 250 251 248 250 238 228 229 242 234 229 232 272 274 331 283 232 220 212 197 198 199 198 194 188 184 177 172 170 169 170 171 172 178 182 177 186 229 311 338 342 339 341 337 337 338
233 241 245 246 248 251 250 251 249 241 229 242 229 241 257 284 320 319 312 244 208 205 200 200 199 199 197 194 191 186 181 179 178 179 180 184 188 193 195 215 253 300 327 328 330 331 332 332 334
228 237 243 247 251 254 252 250 249 239 231 229 241 245 262 275 312 316 318 291 257 205 202 205 199 200 200 197 196 194 192 189 189 188 188 191 194 202 212 230 257 296 313 319 324 324 328 333 335
232 241 247 251 253 254 254 249 247 245 247 236 231 223 257 276 299 302 304 270 205 217 208 208 205 199 201 201 201 201 200 200 198 196 196 199 203 210 222 236 257 285 299 309 316 317 321 329 336
239 244 249 254 252 252 253 250 246 247 251 248 238 230 252 273 285 287 273 278 248 194 234 210 213 204 201 202 207 207 208 207 205 205 205 207 212 220 232 247 261 273 288 301 310 317 326 333 336
244 251 250 254 256 249 251 246 249 248 248 251 244 244 239 254 276 286 272 273 266 233 199 228 218 210 204 206 206 211 211 213 211 212 211 215 219 229 236 247 258 275 285 295 300 309 318 328 332
249 254 256 254 252 255 248 248 252 247 247 247 256 249 240 244 259 274 272 250 255 269 248 225 224 218 214 213 213 209 213 217 219 218 220 221 228 234 242 248 259 270 278 291 298 307 315 322 332
252 254 261 255 246 249 251 253 248 254 249 249 252 255 247 233 243 253 267 246 268 256 253 262 238 243 226 219 220 222 220 219 227 228 226 226 235 244 251 260 264 271 278 284 293 294 309 331 327
261 260 259 262 256 252 244 256 257 258 251 245 242 250 238 242 246 243 249 254 260 256 248 254 232 246 250 233 228 227 226 227 231 234 237 239 242 250 256 264 265 272 278 286 292 289 287 305 301
249 254 258 260 235 236 244 258 256 250 243 241 243 243 239 235 239 248 248 258 262 261 258 252 266 225 239 243 244 237 234 234 232 234 240 246 245 258 264 259 263 274 277 278 291 299 304 304 308
277 253 248 258 237 247 250 254 259 250 237 247 250 252 246 234 228 242 240 245 256 258 257 251 248 272 219 235 244 250 243 245 242 241 241 234 238 250 258 242 259 270 273 284 289 297 310 318 299
272 268 268 263 255 256 261 261 256 250 250 253 255 255 248 237 216 221 235 240 245 260 259 256 250 250 260 225 248 248 242 252 249 252 246 236 241 246 245 239 262 271 269 271 277 292 307 303 282
261 264 265 265 260 260 266 267 262 255 252 252 252 250 250 240 229 216 237 235 245 258 260 262 253 248 247 248 243 243 236 247 246 253 257 246 244 246 250 256 264 264 269 266 270 269 287 288 285
258 262 269 269 270 265 273 273 269 270 256 255 250 250 243 246 234 237 239 248 250 251 243 247 242 241 235 241 242 239 231 242 243 255 250 234 251 254 258 257 259 257 261 269 262 259 280 275 280
267 268 273 263 268 267 269 288 273 267 249 256 235 232 229 227 227 225 236 250 252 251 253 244 239 240 242 236 238 238 239 237 247 250 248 242 248 253 262 256 260 255 254 262 257 262 269 277 282
271 273 268 265 269 277 270 266 273 264 254 249 237 224 218 216 221 234 230 245 255 258 252 249 241 235 233 234 235 233 233 237 231 241 238 235 245 261 261 260 249 249 254 253 249 252 262 276 275
268 269 264 267 262 257 263 256 268 264 227 214 205 202 207 218 233 232 249 254 260 262 261 257 249 245 237 233 231 232 232 233 235 231 233 242 235 258 252 249 241 250 245 252 252 250 273 286 286
253 260 267 260 245 246 263 243 254 293 211 210 207 218 229 231 235 244 253 257 263 263 259 260 258 253 246 241 237 234 235 234 233 232 233 235 230 241 262 259 249 250 248 252 249 251 277 273 283
257 250 266 282 285 294 303 247 260 243 240 215 221 234 235 234 225 234 249 261 263 265 267 263 266 261 255 253 248 243 239 236 236 236 235 237 238 240 245 254 256 251 250 255 250 260 280 275 274
264 263 265 280 269 272 274 277 272 235 216 215 237 230 221 232 244 256 265 274 271 264 266 267 267 266 267 260 255 252 249 246 241 238 238 239 240 242 242 245 251 249 255 260 258 261 272 269 266
252 259 271 258 262 264 261 260 271 225 208 213 210 221 239 251 266 272 269 268 271 269 270 282 277 269 270 270 267 261 256 253 250 246 240 240 240 241 242 244 245 249 257 258 258 258 262 267 264
256 254 250 257 252 254 274 281 54 145 183 216 216 229 251 274 278 275 273 269 269 271 271 269 273 276 273 271 272 270 267 263 256 252 247 245 242 240 243 244 248 248 253 253 254 258 262 264 260
257 257 243 246 264 263 270 268 250 190 212 230 228 243 266 275 278 281 274 276 278 272 270 265 275 284 281 275 272 270 273 271 266 262 255 248 244 239 241 244 246 249 248 250 253 258 262 264 260
Height
3157 3158 3161 3164 3170 3162 3156 3155 3154 3157 3162 3164 3163 3165 3167 3166 3167 3170 3168 3166 3167 3167 3170 3170 3170 3169 3167 3167 3170 3170 3172 3174 3177 3178 3180 3181 3182 3183 3184 3185 3185 3185 3185 3186 3186 3186 3186 3185 3185
3155 3157 3160 3162 3164 3156 3152 3153 3154 3159 3159 3161 3163 3163 3165 3166 3166 3165 3168 3164 3166 3166 3169 3170 3171 3170 3169 3168 3169 3171 3173 3176 3179 3181 3182 3183 3184 3185 3186 3187 3187 3187 3187 3187 3187 3187 3186 3186 3186
3154 3156 3160 3160 3158 3155 3150 3150 3152 3157 3158 3162 3162 3161 3162 3163 3161 3159 3160 3162 3164 3164 3167 3170 3171 3171 3170 3169 3170 3172 3175 3177 3180 3182 3184 3185 3186 3187 3188 3189 3189 3189 3189 3188 3188 3188 3187 3186 3185
3153 3157 3159 3157 3153 3152 3150 3153 3155 3155 3158 3159 3160 3161 3161 3158 3156 3154 3157 3161 3162 3163 3165 3168 3170 3172 3171 3169 3170 3172 3175 3178 3181 3183 3185 3186 3187 3188 3189 3190 3191 3190 3190 3189 3189 3188 3187 3187 3186
3151 3154 3154 3152 3150 3150 3149 3152 3154 3156 3157 3158 3159 3160 3161 3157 3152 3152 3155 3158 3160 3161 3163 3166 3168 3171 3172 3170 3170 3171 3174 3178 3181 3184 3185 3186 3188 3189 3190 3190 3191 3191 3191 3190 3189 3188 3188 3187 3186
3151 3152 3150 3147 3146 3148 3148 3150 3152 3155 3156 3157 3157 3158 3160 3155 3151 3150 3152 3156 3157 3159 3161 3164 3167 3169 3172 3172 3170 3171 3173 3176 3180 3183 3185 3186 3188 3188 3190 3190 3191 3191 3190 3189 3189 3189 3187 3186 3186
3146 3148 3145 3145 3142 3143 3145 3147 3149 3153 3153 3155 3155 3154 3158 3152 3149 3149 3149 3152 3154 3155 3158 3161 3164 3167 3170 3173 3173 3172 3173 3175 3178 3181 3183 3185 3187 3188 3189 3190 3190 3191 3190 3189 3188 3188 3187 3186 3185
3143 3145 3142 3140 3139 3139 3143 3140 3144 3146 3149 3153 3152 3154 3155 3147 3149 3150 3147 3148 3150 3152 3154 3157 3160 3163 3166 3169 3172 3173 3173 3175 3177 3179 3181 3183 3186 3187 3188 3189 3189 3190 3190 3189 3188 3187 3187 3186 3184
3142 3140 3133 3134 3136 3137 3140 3139 3141 3143 3143 3146 3151 3149 3149 3148 3148 3149 3148 3146 3147 3149 3150 3153 3156 3160 3163 3166 3169 3171 3172 3173 3174 3177 3179 3182 3183 3186 3186 3188 3188 3189 3188 3189 3188 3187 3185 3184 3183
3133 3130 3128 3132 3132 3133 3135 3135 3136 3139 3140 3140 3139 3146 3146 3145 3145 3146 3148 3148 3142 3145 3147 3150 3151 3156 3160 3163 3167 3169 3171 3171 3172 3174 3177 3179 3181 3184 3185 3186 3187 3187 3187 3187 3186 3185 3183 3182 3182
3128 3121 3126 3127 3128 3129 3129 3130 3133 3133 3134 3137 3134 3133 3139 3140 3141 3143 3145 3142 3143 3142 3144 3146 3148 3150 3155 3159 3163 3166 3167 3169 3171 3173 3175 3177 3180 3182 3183 3184 3185 3185 3185 3184 3184 3183 3182 3181 3180
3121 3120 3122 3123 3124 3124 3123 3125 3125 3128 3130 3129 3128 3131 3132 3134 3136 3138 3139 3139 3138 3140 3140 3141 3144 3145 3149 3154 3159 3162 3165 3167 3169 3171 3173 3175 3178 3180 3181 3182 3182 3183 3182 3183 3182 3180 3181 3180 3178
3115 3116 3116 3117 3117 3117 3119 3119 3120 3122 3124 3125 3121 3124 3127 3129 3131 3132 3133 3135 3132 3136 3136 3138 3138 3141 3144 3147 3152 3157 3161 3164 3166 3168 3170 3172 3174 3176 3178 3179 3180 3180 3180 3180 3180 3180 3179 3178 3177
3111 3111 3110 3111 3111 3112 3112 3113 3115 3113 3119 3118 3116 3117 3120 3124 3126 3126 3125 3129 3127 3128 3131 3132 3131 3136 3142 3145 3147 3151 3156 3160 3164 3164 3167 3169 3171 3172 3174 3176 3177 3178 3178 3178 3179 3178 3177 3177 3175
3106 3105 3104 3103 3104 3105 3108 3104 3102 3108 3111 3109 3110 3111 3113 3117 3118 3119 3119 3120 3121 3124 3125 3126 3128 3131 3136 3141 3144 3148 3153 3155 3159 3161 3162 3165 3169 3170 3172 3173 3175 3176 3175 3175 3176 3176 3175 3175 3174
3102 3101 3098 3097 3097 3099 3103 3092 3098 3100 3100 3102 3103 3105 3107 3107 3109 3110 3112 3112 3116 3119 3119 3120 3121 3128 3128 3133 3138 3142 3146 3150 3153 3155 3158 3160 3163 3166 3166 3169 3170 3171 3171 3172 3173 3173 3172 3171 3171
3097 3093 3091 3090 3091 3094 3095 3089 3093 3094 3093 3095 3095 3096 3097 3102 3104 3103 3104 3104 3109 3113 3114 3115 3116 3118 3126 3127 3131 3136 3140 3143 3147 3149 3152 3155 3157 3161 3163 3164 3165 3167 3167 3167 3169 3170 3170 3169 3166
3087 3086 3086 3086 3089 3087 3088 3086 3087 3088 3087 3088 3088 3087 3087 3093 3099 3098 3098 3095 3099 3104 3106 3109 3110 3111 3116 3122 3128 3131 3132 3135 3139 3143 3147 3149 3154 3157 3159 3160 3161 3162 3162 3164 3165 3165 3165 3162 3162
3089 3088 3086 3085 3086 3084 3084 3082 3082 3082 3082 3082 3081 3081 3082 3084 3090 3093 3088 3089 3092 3092 3097 3101 3107 3107 3110 3114 3123 3125 3126 3131 3133 3136 3142 3143 3148 3151 3154 3155 3157 3158 3158 3160 3159 3161 3162 3159 3160
3088 3086 3083 3082 3082 3081 3079 3076 3076 3075 3074 3074 3075 3076 3078 3080 3079 3082 3079 3080 3082 3087 3090 3094 3099 3105 3110 3112 3116 3119 3124 3124 3127 3130 3135 3136 3141 3144 3147 3149 3151 3153 3153 3153 3154 3156 3155 3155 3154
3084 3082 3080 3079 3077 3076 3075 3068 3067 3065 3062 3065 3067 3069 3072 3072 3074 3075 3073 3072 3073 3077 3084 3087 3094 3098 3100 3105 3107 3109 3113 3118 3120 3124 3128 3128 3134 3134 3138 3140 3145 3148 3146 3146 3149 3149 3150 3149 3148
3080 3079 3077 3075 3076 3071 3069 3056 3058 3059 3058 3058 3059 3061 3063 3062 3063 3066 3066 3063 3065 3066 3072 3080 3083 3085 3091 3094 3098 3101 3104 3107 3113 3114 3119 3119 3124 3124 3129 3133 3136 3137 3137 3138 3140 3143 3145 3145 3145
3077 3076 3075 3074 3071 3068 3064 3060 3050 3051 3049 3052 3054 3056 3058 3059 3061 3059 3059 3055 3057 3058 3063 3067 3073 3079 3083 3083 3085 3093 3094 3098 3101 3102 3106 3109 3111 3115 3121 3121 3127 3128 3127 3131 3128 3134 3137 3137 3140
3075 3073 3072 3069 3065 3058 3052 3052 3043 3043 3042 3047 3052 3054 3055 3056 3057 3057 3056 3054 3056 3054 3056 3058 3063 3065 3070 3075 3079 3082 3085 3090 3091 3093 3094 3099 3103 3112 3108 3114 3117 3116 3118 3124 3127 3127 3130 3133 3134
3071 3071 3064 3056 3047 3040 3037 3039 3038 3040 3043 3045 3047 3051 3052 3053 3054 3054 3055 3054 3054 3050 3050 3051 3052 3054 3060 3062 3065 3068 3074 3076 3080 3083 3086 3090 3095 3099 3099 3105 3102 3108 3111 3116 3119 3123 3123 3126 3124
3062 3063 3057 3048 3042 3037 3037 3036 3034 3036 3040 3043 3045 3047 3048 3048 3050 3050 3049 3048 3048 3048 3045 3045 3045 3046 3051 3050 3054 3056 3060 3064 3067 3071 3075 3081 3086 3091 3094 3096 3099 3103 3106 3110 3112 3114 3115 3115 3118
3058 3055 3056 3049 3047 3042 3036 3029 3029 3029 3035 3037 3041 3042 3043 3044 3045 3045 3044 3044 3043 3041 3038 3037 3039 3039 3040 3043 3044 3045 3048 3051 3054 3059 3064 3069 3075 3079 3084 3087 3091 3098 3099 3102 3105 3106 3108 3109 3111
3053 3053 3051 3053 3043 3033 3028 3024 3019 3018 3028 3032 3034 3037 3039 3039 3040 3040 3039 3038 3036 3035 3032 3032 3032 3033 3034 3034 3035 3038 3039 3041 3043 3046 3051 3055 3062 3068 3074 3077 3082 3087 3090 3092 3095 3099 3100 3102 3104
3046 3044 3045 3042 3038 3037 3030 3023 3020 3021 3026 3031 3030 3031 3034 3035 3034 3033 3032 3032 3031 3030 3028 3027 3024 3024 3026 3026 3027 3027 3028 3030 3033 3034 3038 3043 3048 3055 3061 3067 3070 3075 3080 3083 3086 3089 3092 3094 3096
3039 3036 3038 3037 3035 3031 3029 3020 3021 3022 3026 3028 3026 3026 3028 3028 3027 3026 3025 3024 3022 3021 3020 3019 3015 3014 3016 3017 3017 3017 3017 3020 3021 3023 3027 3031 3035 3042 3049 3055 3059 3063 3068 3073 3077 3081 3084 3085 3087